Volver al catálogo

STARLINK-32211

ActivoComunicacionesVLEO
NORAD 60270·PAYLOAD·🇺🇸 United States

Lanzado Jul 27, 2024 desde Cape Canaveral Space Force Station

Loading…

Próximos Pases (próximas 24 horas)

TLE

ActualizadoSource: CelesTrak SupGP

Época: Sep 15, 2026, 02:11 UTC

1 60270C 24131R   26258.09145833 -.00027415  00000+0 -80980-3 0  2588
2 60270  53.1563 250.6991 0001343  98.1816 311.1891 15.34410941    13

Sigue STARLINK-32211 en tiempo real con AllMySat

Download on the App Store